Location: Antichan
(42.9728°N, 0.6667°E)
Time: 13:10:40
(UTC+00:00)

Cosmos 1933 Rocket - Pass Details

Date: 15 August 2020
Orbit: 606 x 631 km, 82.5° (Epoch: 24 September)

Event Time Altitude Azimuth Distance (km) Brightness Sun altitude
Exits shadow 20:42:56 17° 183° (S) 1,563 5.3 -17.4°
Maximum altitude 20:46:16 83° 97° (E) 636 3.5 -17.8°
Drops below altitude 10° 20:50:44 10° 10° (N) 2,014 6.6 -18.5°
Sets 20:52:59 0° 9° (N) 2,928 7.5 -18.8°
